Location: Unspecified
(0.0000°N, 0.0000°E)
Time: 16:38:40
(UTC+00:00)

Altair - Visible Passes

Search period start: 30 March 2017 00:00
Search period end: 09 April 2017 00:00
Orbit: 1502 x 1682 km, 47.2° (Epoch: 28 March)

Date Brightness Start Highest point End Pass type
(mag) Time Alt. Az. Time Alt. Az. Time Alt. Az.
30 Mar 9.4 20:51:37 10° S 20:52:22 12° S 20:52:22 12° S visible
31 Mar 9.2 20:26:49 10° S 20:28:53 15° S 20:28:53 15° S visible
01 Apr 8.9 20:02:04 10° S 20:05:29 18° SSE 20:05:29 18° SSE visible
02 Apr 8.8 19:37:24 10° S 19:42:12 18° SSE 19:42:12 18° SSE visible
02 Apr 9.5 21:39:03 10° SW 21:40:16 15° SW 21:40:16 15° SW visible
03 Apr 8.8 19:12:49 10° S 19:18:36 17° SE 19:19:03 17° SE visible
03 Apr 9.0 21:13:51 10° SW 21:17:07 24° SW 21:17:07 24° SW visible
04 Apr 8.8 18:48:24 10° SSE 18:53:19 15° SE 18:56:02 13° ESE visible
04 Apr 8.3 20:48:42 10° SW 20:54:07 38° SSW 20:54:07 38° SSW visible
05 Apr 9.0 18:24:14 10° SSE 18:28:01 13° SE 18:31:43 10° ESE visible
05 Apr 7.7 20:23:34 10° SSW 20:31:17 57° S 20:31:17 57° S visible
06 Apr 7.4 19:58:28 10° SSW 20:08:12 63° SE 20:08:38 62° ESE visible
06 Apr 9.5 22:05:03 10° WSW 22:06:46 15° W 22:06:46 15° W visible
07 Apr 7.5 19:33:23 10° SSW 19:43:02 56° SE 19:46:13 41° ENE visible
07 Apr 9.0 21:39:25 10° WSW 21:44:21 25° W 21:44:21 25° W visible
08 Apr 7.7 19:08:21 10° SSW 19:17:51 50° SE 19:24:02 22° ENE visible
08 Apr 8.6 21:13:51 10° WSW 21:22:13 35° NW 21:22:13 35° NW visible
